Regional Weather Roundup
Issued by NWS

Home | Current Version | Previous Version | Text Only | Print | Product List | Glossary On
Versions: 1 2 3 4 5 6 7 8 9 10 11 12 13 14 15 16 17 18 19 20 21 22 23 24 25 26 27 28 29 30 31 32 33 34 35 36 37 38 39 40 41 42 43 44 45 46 47 48 49 50
000
ASUS43 KLSX 170857
RWRMO

WEATHER SUMMARY FOR MISSOURI
NATIONAL WEATHER SERVICE SPRINGFIELD MO
300 AM CST TUE JAN 17 2017

NOTE: "FAIR" INDICATES FEW OR NO CLOUDS BELOW 12,000 FEET WITH NO
       SIGNIFICANT WEATHER AND/OR OBSTRUCTIONS TO VISIBILITY.
       CURRENT SKY AND/OR WEATHER CONDITIONS ARE NOT AVAILABLE FOR
       CHILLICOTHE AND FARMINGTON.

MOZ001>031-035>038-043-044-053-054-171000-
...NORTHERN AND WESTERN MISSOURI...

CITY           SKY/WX    TMP DP  RH WIND       PRES   REMARKS
KANSAS CTY INT CLOUDY    34  33  96 NW9       29.99R WCI  27
LEE`S SUMMIT   CLOUDY    36 N/A N/A W12       29.99R WCI  28
ST JOSEPH      CLOUDY    34  34 100 NW8       30.01R WCI  27
CHILLICOTHE      N/A     36  35  96 W8        29.97R WCI  30

$$
MOZ066>068-077>081-088>096-101>105-171000-
...SOUTHWEST MISSOURI...

CITY           SKY/WX    TMP DP  RH WIND       PRES   REMARKS
SPRINGFIELD    CLOUDY    40  35  83 W10       30.00R
JOPLIN         CLOUDY    39  37  92 MISG      30.03S

$$
MOZ032>034-039>042-045>050-055>058-069>072-171000-
...CENTRAL MISSOURI...

CITY           SKY/WX    TMP DP  RH WIND       PRES   REMARKS
COLUMBIA       NOT AVBL
JEFFERSON CITY CLOUDY    43  37  79 W13       29.98R
ROLLA          CLOUDY    40  37  89 W10       29.96R
SEDALIA        CLOUDY    40  38  93 W12       29.98R
WARRENSBURG    CLOUDY    37  34  87 W9        29.98R

$$
MOZ051-052-059>065-171000-
...EAST CENTRAL MISSOURI...

CITY           SKY/WX    TMP DP  RH WIND       PRES   REMARKS
ST LOUIS INTL  CLOUDY    47  40  76 W18       29.92R

$$
MOZ072>076-082>087-097>100-106>115-171000-
...SOUTH CENTRAL AND SOUTHEAST MISSOURI...

CITY           SKY/WX    TMP DP  RH WIND       PRES   REMARKS
CAPE GIRARDEAU PTCLDY    57  55  93 SW14      29.92R
POPLAR BLUFF   CLEAR     53  48  83 W8        29.95R
WEST PLAINS    MOCLDY    39  37  92 W5        30.00R

$$


USA.gov is the U.S. government's official web portal to all federal, state and local government web resources and services.